Weather in Serebryakovo

Russia / Kemerovo Oblast     55°41′34″N   89°01′19″E
temp.,
°C
wind,
m/s
gust,
m/s
humid.,
%
clouds,
%
prec.,
mm/h
press.,
hPa
HPBL,
m
6 march, sat
sat601:00−5sw6168767 0.0 10171165
04:00−5wsw91984100 0.2 10161363
07:00−6wsw81781100 0.3 10181020
10:00−5sw4158575 0.0 10171166
13:00−3sw9177387 0.0 10161195
16:00−2sw71774100 0.0 10131250
19:00−4ssw51779100 0.0 10121125
22:00−4wsw71881100 0.0 10111060
7 march, sun
sun701:00−5wsw71880100 0.0 1011834
04:00−5sw81684100 0.0 1010677
07:00−5sw71585100 0.1 1011787
10:00−4wsw8129388 0.3 1012970
13:00−4w9156881 0.4 10151402
16:00−5w7137265 0.0 10161172
19:00−8w6147771 0.0 1018403
22:00−11w615799 0.0 1021357
8 march, mon
mon801:00−13wsw48825 0.0 1024127
04:00−15sw227916 0.0 102520
07:00−14se228038 0.0 102521
10:00−9se368748 0.0 1022172
13:00−4se468672 0.0 1018241
16:00−1se4788100 0.0 1014242
19:00−2sse4886100 0.0 1010143
22:00−1ssw51771100 0.0 1008625
9 march, tue
tue901:00−2wsw51682100 0.0 1008991
04:00−2wsw8178424 0.0 10111262
07:00−9w8177826 0.1 1016613
10:00−9wsw9177631 0.0 1020834
13:00−7wsw10157651 0.0 10231122
16:00−7w813770 0.0 10251028
19:00−11wsw47850 0.0 1026114
22:00−13ssw228763 0.0 102720
10 march, wed
wed1001:00−14se238378 0.0 102520
04:00−14sse237771 0.0 102221
07:00−13sse236755 0.0 101920
10:00−7sse238757 0.0 101792
13:000wsw4109467 0.1 10151216
16:00+1wsw3993100 0.1 10141024
19:00−1sw3589100 0.1 1013106
22:00−1s2292100 0.0 101247